Weather History for KTDZ - April, 2013

Change the Weather History Date:

Monday, April 1, 2013

  Actual Average (KTOL) Record (KTOL)
Temperature  
Mean Temperature 36 °F 44 °F  
Max Temperature 43 °F 54 °F 80 °F (2010)
Min Temperature 27 °F 34 °F 11 °F (1964)
Degree Days  
Heating Degree Days 29 21  
Month to date heating degree days 21  
Since 1 July heating degree days 5447  
Cooling Degree Days 0 0  
Month to date cooling degree days 0  
Year to date cooling degree days 0  
Moisture  
Dew Point 18 °F    
Average Humidity 52    
Maximum Humidity 75    
Minimum Humidity 29    
Precipitation  
Precipitation 0.00 in 0.10 in 0.79 in (1959)
Month to date precipitation 0.10  
Year to date precipitation 6.70  
Snow  
Snow 0.00 in 0.10 in - ()
Month to date snowfall 0.1  
Since 1 July snowfall 36.3  
Snow Depth -    
Sea Level Pressure  
Sea Level Pressure 29.96 in    
Wind  
Wind Speed 15 mph (WNW)    
Max Wind Speed 21 mph    
Max Gust Speed 32 mph    
Visibility 10 miles    
Events Snow    
T = Trace of Precipitation, MM = Missing Value Source: NWS Daily Summary

Daily Weather History Graph

Daily Weather History Graph

Search for Another Location

Airport or City:

Trip Planner

Search our weather history database for the weather conditions in past years. The results will help you decide how hot, cold, wet, or windy it might be!

Date:

Astronomy

Apr. 01, 2013 Rise Set
Actual Time 7:16 AM EDT 7:59 PM EDT
Civil Twilight 6:48 AM EDT 8:27 PM EDT
Nautical Twilight 6:15 AM EDT 9:00 PM EDT
Astronomical Twilight 5:41 AM EDT 9:35 PM EDT
Moon 1:09 AM EDT (4/1) 10:58 AM EDT (4/1)
Length of Visible Light 13h 39m
Length of Day
12h 43m
Waning Gibbous, 67% of the Moon is Illuminated
Apr 1
Waning Gibbous
Apr 3
Last Quarter
Apr 10
New
Apr 18
First Quarter
Apr 25
Full

Hourly Weather History & Observations

Time (EDT) Temp. Windchill Dew Point Humidity Pressure Visibility Wind Dir Wind Speed Gust Speed Precip Events Conditions
12:53 AM 44.1 °F 35.7 °F 28.9 °F 55% 29.74 in 10.0 mi WNW 20.7 mph 28.8 mph N/A   Partly Cloudy
1:53 AM 39.9 °F 31.8 °F 27.0 °F 60% 29.76 in 10.0 mi WNW 15.0 mph - N/A   Clear
2:53 AM 36.0 °F 29.6 °F 27.0 °F 70% 29.78 in 10.0 mi West 8.1 mph - N/A   Clear
3:53 AM 36.0 °F 28.5 °F 27.0 °F 70% 29.80 in 10.0 mi West 10.4 mph - N/A   Clear
4:51 AM 33.8 °F 22.5 °F 26.6 °F 75% 29.84 in 5.0 mi NW 19.6 mph 32.2 mph 0.00 in Snow Light Snow
5:11 AM 33.8 °F 25.8 °F 26.6 °F 75% 29.84 in 9.0 mi NW 10.4 mph - 0.00 in Snow Light Snow
5:53 AM 33.1 °F 24.9 °F 25.0 °F 72% 29.87 in 10.0 mi NW 10.4 mph - 0.00 in   Mostly Cloudy
6:53 AM 30.9 °F 22.2 °F 23.0 °F 72% 29.91 in 10.0 mi NW 10.4 mph - N/A   Clear
7:53 AM 30.9 °F 21.2 °F 21.9 °F 69% 29.96 in 10.0 mi WNW 12.7 mph - N/A   Clear
8:53 AM 33.1 °F 23.4 °F 15.1 °F 48% 29.99 in 10.0 mi NW 13.8 mph - N/A   Clear
9:53 AM 35.1 °F 25.2 °F 15.1 °F 44% 30.00 in 10.0 mi NW 16.1 mph 25.3 mph N/A   Scattered Clouds
11:53 AM 37.0 °F 27.0 °F 12.9 °F 37% 30.03 in 10.0 mi NW 18.4 mph - N/A   Mostly Cloudy
12:53 PM 39.0 °F 30.6 °F 12.0 °F 33% 30.03 in 10.0 mi West 15.0 mph 24.2 mph N/A   Scattered Clouds
1:53 PM 42.1 °F 33.1 °F 12.0 °F 29% 30.03 in 10.0 mi West 20.7 mph 28.8 mph N/A   Scattered Clouds
2:53 PM 41.0 °F 32.8 °F 10.9 °F 29% 30.02 in 10.0 mi West 16.1 mph 25.3 mph N/A   Scattered Clouds
4:53 PM 39.9 °F 31.1 °F 10.9 °F 31% 30.03 in 10.0 mi WNW 17.3 mph 23.0 mph N/A   Mostly Cloudy
7:53 PM 35.1 °F 23.8 °F 10.9 °F 37% 30.08 in 10.0 mi WNW 20.7 mph 25.3 mph N/A   Scattered Clouds
8:53 PM 32.0 °F 20.1 °F 12.0 °F 44% 30.10 in 10.0 mi WNW 19.6 mph 24.2 mph N/A   Clear
9:53 PM 30.0 °F 19.1 °F 12.0 °F 47% 30.13 in 10.0 mi NW 15.0 mph - N/A   Clear
10:53 PM 28.0 °F 18.6 °F 12.0 °F 51% 30.14 in 10.0 mi NW 10.4 mph - N/A   Clear
11:53 PM 27.0 °F 18.7 °F 12.0 °F 53% 30.14 in 10.0 mi WNW 8.1 mph - N/A   Clear